* Astronomy

Members Login
Username 
 
Password 
    Remember Me  
Post Info TOPIC: Asteroid 2002 VU114


L

Posts: 131433
Date:
Asteroid 2002 VU114
Permalink  
 


Orbital elements:
2002 VU114                                               Earth MOID = 0.0343 AU
Epoch 2011 Aug. 27.0 TT = JDT 2455800.5                 MPC
M 242.00953              (2000.0)            P               Q
n   0.76737431     Peri.  150.75056     -0.80812635     -0.58898081
a   1.1815839      Node   353.15605     +0.53054105     -0.72361019
e   0.2859403      Incl.    2.78002     +0.25584759     -0.35984706
P   1.28           H   22.8           G   0.15           U   3

MPEC 2011 - W47

The 72 - 160 metre wide asteroid 2002 VU114 will make a close pass (23.3 lunar distances, 0.0598 AU), travelling at 8.63 km/second, to the Earth-Moon system on the 4th December, 2011 @ 00:11 UT ±00:01.

See more

The Lunar Distance (LD), the distance between Earth and the Moon, equals 384,401 km, (or 0.00256 AU).



__________________
Page 1 of 1  sorted by
 
Quick Reply

Please log in to post quick replies.



Create your own FREE Forum
Report Abuse
Powered by ActiveBoard